STARLINK-1134 (45048 NORAD) Tracking and Keplerian Element Data

This shows tracking and keplerian element data for the satellite.

Feedback or suggestion? Click here.




ElementValue
Catalog45048
NameSTARLINK-1134
Epoch Orbit401
Epoch Day52.91667824
Epoch Year2020
RAAN121.0491
Inclination52.9974
Eccentricity0.0001346
Argument of Perigee64.5475
Mean Anonmoly10.9605
Mean Motion15.48476359
Decay Rate0.00427494
L11 45048U 20006E 20052.91667824 .00427494 00000-0 74955-2 0 9993
L22 45048 52.9974 121.0491 0001346 64.5475 10.9605 15.48476359 4010

Live tracking and technical data element details for STARLINK-1134 (NORAD 45048). STARLINK-1134 can be tracked NOW for your location showing map with azimuth and elevation plus other details from your city location.

Track the satellite on the map from your city or location and see movement details for azimuth, elevation, latitude, longitude, range, height, and movement on the map or in text.







IsCatalogInMostPopularTable: catalog: 45048, numindb: 7
Update: records affected: 1



GetName: 45048 STARLINK-1134

Hit Count: updated at: Wed, 26 Feb 2020 16:32:30 GMT